Wind_Speed
13 14 16 16 16 15 15 15 16 18 18 19 20 20 19 19 11 5 6 5 4 5 5 7 10 13 13 14 18 16 11 12 9 7 10 11 14 5 5 13 6 6 11 17 20
13 15 16 17 16 17 16 16 17 18 18 19 20 20 20 21 7 16 5 4 8 6 8 11 11 14 11 14 10 11 10 6 10 7 9 12 6 9 7 12 9 8 14 19 20
14 15 16 17 18 17 17 17 18 19 19 19 20 20 20 16 9 9 5 5 6 7 9 9 13 10 16 17 10 15 5 4 7 8 6 5 6 6 4 15 12 13 15 16 16
15 16 18 19 18 17 18 19 19 19 20 19 19 19 21 3 3 7 2 3 5 6 8 10 11 15 16 15 4 13 2 4 7 3 1 3 4 6 6 15 9 15 17 16 16
15 16 18 18 19 18 19 20 19 20 19 18 17 16 9 10 5 4 3 5 5 8 11 11 14 15 18 15 3 13 5 3 4 3 7 3 1 2 4 13 10 14 17 17 14
16 16 18 19 20 20 21 20 20 20 19 16 13 12 7 13 3 4 3 6 6 9 7 11 10 8 15 6 11 3 4 5 5 5 5 10 5 10 8 9 11 15 16 17 15
17 17 18 20 20 22 21 21 21 19 16 12 9 7 10 8 1 3 5 6 3 5 7 4 7 12 9 13 7 11 12 16 13 2 8 6 13 13 7 10 13 14 14 15 14
17 17 18 20 22 22 22 22 20 17 12 9 7 7 10 2 5 7 7 8 8 7 8 4 9 12 10 11 10 16 19 13 9 1 5 9 14 32 11 9 11 12 13 14 14
17 17 18 19 22 22 22 21 18 12 8 6 6 8 9 3 9 10 9 9 7 8 8 6 12 14 13 13 16 15 2 24 10 5 3 7 14 13 3 7 8 11 13 14 14
17 17 18 18 20 22 21 19 16 11 7 7 11 8 8 5 3 4 7 8 8 7 8 10 11 14 14 14 16 14 15 23 3 1 6 12 10 10 7 5 6 12 13 14 15
17 18 18 18 19 19 19 9 7 6 13 14 2 10 2 4 5 10 9 10 10 10 13 12 11 15 20 18 21 13 12 10 6 2 9 10 10 3 4 6 4 4 10 12 14
18 19 19 18 17 11 11 7 7 6 9 12 13 12 7 4 6 9 9 10 12 13 14 7 13 16 12 10 9 10 12 12 8 3 9 13 9 5 6 1 6 6 12 11 14
18 19 19 17 13 5 6 5 7 6 7 12 12 14 13 14 13 12 13 13 10 14 14 14 7 4 5 12 12 14 15 14 7 3 11 11 17 11 5 3 1 4 4 10 13
18 19 19 16 6 4 6 3 7 3 6 13 10 9 9 9 16 15 14 10 9 12 13 12 16 4 9 14 13 15 17 13 6 9 13 3 8 12 7 4 3 7 4 7 13
18 19 16 12 12 7 4 5 4 4 6 9 11 5 9 14 5 16 14 12 13 11 6 15 13 11 14 14 13 16 5 4 10 13 13 12 7 6 9 8 7 9 10 12 13
18 19 14 3 6 8 5 6 5 7 10 8 8 11 14 18 12 8 13 13 10 10 11 19 1 12 17 15 9 12 7 7 10 13 13 14 3 9 9 9 5 13 13 10 12
18 16 11 7 1 4 6 10 7 10 6 8 10 11 16 16 19 14 15 17 14 11 13 15 14 12 12 8 12 12 13 10 11 11 9 8 4 5 8 9 6 10 12 12 13
18 12 7 10 6 6 9 9 12 12 20 4 4 9 11 14 17 18 14 16 19 17 15 13 14 16 13 16 11 15 17 11 11 7 6 7 5 3 9 8 9 12 13 13 13
13 4 9 5 8 8 8 12 12 15 5 2 11 12 14 11 13 18 18 17 18 19 12 7 14 16 15 14 15 15 15 15 10 9 8 5 10 8 9 10 8 12 12 11 13
7 7 7 4 7 11 9 16 15 2 6 7 14 11 15 14 14 16 18 16 17 16 14 10 11 12 14 8 9 13 6 10 8 11 13 5 3 8 10 14 10 11 12 10 10
6 5 6 6 9 8 11 17 18 6 5 10 12 12 14 6 10 16 13 14 15 15 12 17 8 11 10 12 15 11 11 9 15 6 6 1 11 12 10 6 10 7 13 10 10
9 5 8 9 8 10 12 17 4 5 10 12 6 10 9 6 9 17 13 7 15 16 17 18 9 13 12 15 21 18 12 16 10 11 8 11 8 3 10 9 1 13 10 9 7
4 2 6 10 7 9 12 5 6 10 10 11 11 10 2 9 5 11 10 9 2 13 11 14 9 10 15 10 9 11 16 10 9 10 9 11 5 10 10 8 5 12 11 8 7
5 6 5 7 9 9 14 11 14 12 14 8 8 9 8 10 8 7 9 3 6 12 9 6 13 13 12 15 12 18 18 18 16 12 14 9 12 0 8 11 7 9 8 8 6
4 3 4 7 10 10 1 5 11 13 11 12 14 16 15 12 12 12 13 9 9 5 9 10 12 16 19 18 13 6 13 16 18 18 16 10 16 7 1 7 8 8 6 6 6
5 4 4 2 3 5 6 11 11 10 9 9 14 14 18 15 12 8 7 9 12 14 12 16 13 15 18 19 19 10 13 11 16 18 15 9 15 8 10 9 8 8 7 6 4
3 4 6 7 9 9 9 7 4 5 9 13 11 12 11 6 9 13 7 9 11 9 8 12 13 14 17 20 19 16 17 13 13 14 12 12 17 18 11 10 7 5 3 4 2
Wind_Direction
3 5 1 3 354 355 352 347 342 342 344 342 340 339 335 332 310 227 249 103 169 190 204 210 215 234 245 252 251 280 47 303 102 57 122 133 110 84 64 116 70 70 72 121 149
359 358 357 355 348 349 345 343 339 340 340 339 337 335 333 332 292 233 118 192 186 215 225 210 217 224 238 245 249 253 125 234 35 46 19 100 326 113 176 119 128 115 115 140 155
354 353 353 349 345 346 339 339 336 336 336 336 334 333 330 328 264 102 109 203 199 204 252 260 271 249 248 266 261 289 24 56 85 40 16 93 172 148 235 136 132 139 155 159 165
349 349 348 342 340 340 336 336 332 333 331 332 332 331 326 276 248 76 99 187 170 190 225 230 243 246 249 252 230 280 58 328 52 89 298 21 106 141 294 83 93 131 165 165 178
347 344 340 339 337 335 332 331 329 330 328 329 329 330 328 232 76 120 130 151 197 215 228 228 239 238 254 262 283 256 153 241 216 128 330 10 345 0 186 117 131 147 164 175 179
347 340 335 336 333 329 328 327 326 325 323 324 325 325 267 266 85 129 192 206 228 227 211 230 259 312 293 293 274 312 268 244 238 131 224 284 230 182 172 140 145 172 169 179 178
342 340 335 332 329 325 325 323 322 320 318 320 318 321 270 285 251 223 216 238 231 279 253 206 276 258 250 259 237 265 246 223 205 150 281 240 264 313 172 143 163 186 177 176 176
340 335 332 329 327 323 321 320 318 317 317 317 309 283 276 143 242 240 232 233 221 235 257 286 277 273 272 302 254 246 241 259 79 108 101 284 93 235 107 156 173 189 184 178 180
339 332 328 326 325 322 317 315 312 307 308 302 283 238 270 150 216 223 220 253 200 233 233 270 263 260 240 244 246 222 267 318 147 107 316 240 297 179 102 143 179 182 189 185 185
335 329 324 325 324 322 318 310 296 282 286 259 263 268 224 228 142 240 229 250 256 240 236 225 235 237 230 234 242 233 221 200 217 46 327 279 239 264 108 178 214 177 194 193 187
333 328 325 325 325 326 325 304 227 199 223 255 47 265 149 213 215 220 201 222 241 240 249 198 241 229 239 226 265 332 323 347 329 32 277 291 306 54 114 225 193 202 184 203 194
332 329 326 325 323 318 304 295 32 336 299 259 248 257 264 255 241 219 197 220 211 239 221 231 228 248 245 317 294 261 272 260 257 254 281 285 297 121 211 166 322 293 177 206 183
331 327 326 325 319 283 299 15 332 318 260 262 220 234 222 209 236 218 200 214 230 233 242 247 246 88 255 246 254 251 259 259 263 179 250 258 255 141 172 217 317 311 301 157 183
328 327 329 324 291 317 236 323 325 298 270 192 205 218 200 224 229 236 193 226 226 250 229 248 254 216 225 245 230 255 239 248 279 256 274 177 302 169 155 155 95 67 104 146 154
327 326 328 323 311 243 30 320 315 251 266 137 137 100 209 204 92 189 196 205 247 213 258 227 229 206 238 233 234 257 333 235 242 264 267 286 246 134 192 139 61 74 85 96 114
325 324 324 284 241 270 289 293 249 231 245 156 162 197 195 210 219 130 197 227 241 250 211 266 175 249 232 232 248 264 240 241 253 257 256 237 260 302 68 52 27 103 99 120 130
324 318 298 271 42 285 271 236 226 240 129 202 198 199 207 193 216 193 193 204 218 215 224 218 227 223 245 222 215 227 226 228 222 220 245 93 246 328 90 68 51 102 119 123 122
322 310 284 229 258 274 240 222 243 239 242 62 294 198 227 218 201 206 213 213 220 233 272 211 203 210 180 235 199 216 242 255 283 269 208 133 236 168 79 100 120 89 113 128 134
318 267 229 220 223 227 230 223 218 253 283 172 224 244 220 226 232 212 218 220 217 223 244 240 242 185 205 210 247 210 224 259 299 270 291 259 165 154 146 127 131 111 131 137 142
311 242 169 223 205 213 228 242 236 324 353 272 257 229 235 195 202 233 207 230 229 207 225 267 272 180 184 244 234 273 226 224 233 270 257 250 213 134 171 153 131 145 128 138 151
249 230 120 168 188 215 222 230 244 147 264 264 263 266 257 294 208 226 221 222 221 225 222 236 234 213 164 202 220 204 248 255 281 265 308 118 303 83 89 75 150 128 125 154 160
278 233 145 178 203 216 226 235 5 264 216 251 276 296 290 268 254 250 217 232 193 230 205 223 228 252 209 222 224 261 226 223 249 223 264 294 145 181 128 132 212 121 142 151 139
254 84 171 210 225 207 226 241 232 244 239 232 234 239 262 265 254 271 243 79 189 251 210 213 231 236 248 174 216 247 248 263 261 265 255 253 125 150 133 119 132 137 149 157 163
275 198 151 208 275 298 217 218 217 218 265 248 263 270 248 248 234 272 246 211 238 250 358 284 244 240 250 230 245 195 232 239 242 242 243 229 146 316 15 122 126 135 153 169 182
247 288 12 197 213 228 238 280 228 233 206 229 237 240 243 240 246 235 244 251 194 206 248 239 246 249 256 272 282 210 208 228 232 238 246 171 317 57 248 103 120 135 162 170 168
306 314 189 330 312 234 175 238 238 238 256 221 233 250 220 238 258 278 299 234 237 178 228 225 234 253 262 254 262 236 258 226 220 235 236 256 150 188 229 95 121 134 149 150 162
351 251 275 129 204 228 223 228 256 280 266 253 275 239 256 259 282 293 317 307 297 304 224 226 237 238 247 243 247 227 242 210 217 227 250 240 136 161 117 101 117 131 150 168 171
Height
820 818 816 814 812 810 808 806 803 800 797 793 790 787 784 779 776 776 771 773 774 774 774 773 773 770 767 760 748 744 810 808 756 761 750 737 745 745 745 755 758 760 762 767 778
821 819 817 813 811 809 807 804 802 799 796 793 790 786 782 777 774 768 772 772 774 774 774 769 767 764 762 753 742 748 810 772 739 740 744 739 741 746 747 755 764 767 766 772 776
821 819 816 814 811 808 806 803 800 798 795 792 789 786 781 777 773 762 769 772 772 772 771 767 762 758 762 745 740 739 775 741 739 739 735 734 744 736 740 740 752 764 767 771 775
821 818 815 814 811 807 805 802 799 796 794 790 787 784 780 780 781 765 768 770 770 770 769 765 761 763 764 756 738 757 739 740 734 734 738 741 731 742 742 742 743 751 760 769 772
821 818 815 813 809 806 803 800 798 794 792 789 786 783 780 771 762 767 768 769 769 768 763 760 759 757 762 745 745 750 741 739 733 734 737 735 741 743 743 734 744 749 758 764 770
821 817 814 811 808 805 802 798 795 793 790 788 785 783 781 778 767 768 769 768 765 762 758 757 752 748 753 748 750 737 741 738 734 734 737 744 736 737 734 733 745 750 757 760 766
820 816 813 809 806 804 800 797 793 791 789 786 784 783 775 766 767 768 767 764 764 760 755 757 756 754 744 753 737 740 754 738 733 733 739 732 747 748 728 732 746 751 755 758 762
819 815 812 808 805 801 797 794 791 788 786 784 783 784 771 764 766 766 764 762 763 761 760 759 757 751 750 738 746 753 744 756 735 737 735 741 779 765 725 735 745 750 754 758 761
818 815 811 808 803 799 795 792 788 786 784 783 781 778 766 764 763 760 761 759 758 759 758 759 757 753 745 763 763 748 772 779 752 735 741 745 756 738 723 733 741 748 752 757 762
818 814 811 807 803 798 793 789 785 784 782 783 781 780 761 759 758 760 760 761 758 754 756 758 756 762 759 760 781 762 757 758 762 744 744 747 746 730 728 731 739 742 749 755 760
818 814 810 806 802 797 793 787 783 781 777 765 760 757 758 759 762 759 758 759 757 758 769 755 768 773 758 749 742 748 753 758 750 742 754 748 749 737 733 733 736 741 748 753 758
815 811 808 804 800 798 795 784 789 793 781 757 757 757 758 760 759 754 758 762 761 772 757 766 776 749 741 746 750 757 765 766 748 744 753 748 748 737 735 736 736 735 740 750 753
815 812 808 804 800 797 793 791 792 790 782 753 750 753 754 757 758 750 753 752 760 768 761 771 753 742 756 760 768 763 766 762 762 748 744 749 755 747 742 737 736 733 736 742 749
815 811 808 802 802 795 791 794 792 792 788 759 756 749 750 751 757 744 746 750 757 766 759 760 743 758 764 768 759 774 744 751 758 767 777 747 785 752 746 746 741 742 740 744 749
813 810 807 804 800 794 795 794 792 791 809 746 749 744 739 752 739 745 744 747 762 761 762 765 758 761 768 761 751 763 741 752 758 765 764 760 772 752 740 750 747 745 746 747 755
811 807 804 802 801 797 795 795 794 802 801 758 743 751 753 748 743 741 746 744 743 756 755 753 740 746 751 745 746 740 755 757 758 761 785 761 769 762 751 754 746 746 754 759 764
807 804 802 802 794 798 796 793 799 797 747 755 753 743 746 750 751 750 757 763 768 784 778 761 756 746 742 756 749 753 765 791 796 786 787 751 772 759 745 746 747 748 757 760 766
803 800 799 799 798 798 795 792 804 764 756 742 745 741 751 740 746 746 753 762 751 751 758 770 778 752 739 750 756 760 760 778 804 792 775 757 783 763 740 741 744 745 755 762 767
800 797 797 795 797 798 790 795 782 760 748 752 748 759 749 740 744 747 752 752 743 745 770 762 765 728 734 736 740 753 771 742 768 759 777 760 753 742 739 744 746 749 757 761 765
800 791 787 794 795 794 789 788 763 753 758 759 770 746 757 745 753 749 750 739 740 733 737 746 773 736 736 735 735 746 737 774 768 804 801 772 768 761 754 748 750 753 755 760 761
799 782 789 792 793 787 786 772 762 756 763 766 760 755 751 745 742 745 747 735 730 732 734 741 758 745 739 756 755 757 761 753 744 755 778 808 790 732 743 745 747 749 752 760 760
789 780 787 790 788 775 774 763 783 763 763 763 762 759 757 748 753 748 745 734 721 725 746 737 751 766 752 732 729 731 744 749 771 781 764 769 793 736 737 741 743 747 755 755 756
780 774 786 785 780 769 764 769 770 769 767 764 765 758 753 759 770 748 740 728 729 731 739 736 757 774 767 743 740 751 743 740 742 753 773 782 776 731 738 743 742 748 755 760 761
783 778 778 780 766 770 767 775 774 767 767 761 763 756 763 765 754 757 748 735 734 734 745 736 746 762 763 753 733 754 750 742 749 764 761 758 767 765 753 748 752 754 758 762 764
781 769 772 776 771 769 769 770 773 773 768 762 769 768 767 771 763 759 749 736 737 746 741 743 767 754 744 737 729 731 743 744 753 748 758 777 780 790 752 750 749 754 760 763 766
788 781 774 769 775 774 783 774 775 766 766 769 773 759 757 767 761 756 747 739 742 734 744 739 763 755 755 739 733 745 737 736 740 738 742 744 775 774 759 746 756 762 764 767 768
795 790 784 779 774 772 764 768 769 765 764 762 757 759 757 754 748 743 739 740 739 745 745 747 753 761 768 741 740 756 742 736 737 733 735 752 747 746 748 754 762 765 764 766 767